[[{"header":{"parameterUnit":"m.s-1","parameterCategory":1,"la1":30.2991,"la2":30.254,"lo1":-89.0895,"lo2":-89.0444,"dy":0.0017,"dx":0.0017,"nx":28,"ny":28,"refTime":"2024-05-24T21:00:00:Z","depth":0,"parameterNumber":2,"parameterNumberName":"U-component_of_WINDS"},"data":[0,0,0,0,0,0,0,0,0,0,0,0,0,0,0,0,0,0,0,0,0,0,0,0,0,0,0,0,0,0,0,0,0,0,0,0,0,0,0,0,0,0,0,0,0,0,0,0,0,0,0,0,0,0,0,0,0,0,-0.227,-0.2269,0,-0.2136,-0.2135,-0.2133,-0.2057,-0.2057,-0.2057,-0.2057,-0.1919,-0.1915,-0.1912,0,0,0,0,0,0,0,0,0,0,0,0,0,-0.2461,-0.2458,-0.227,-0.2269,-0.2267,-0.2136,-0.2135,-0.2133,-0.2057,-0.2057,-0.2057,-0.2057,-0.192,-0.1916,-0.1911,0,0,0,0,0,0,0,0,0,0,0,0,0,-0.2358,-0.2457,-0.227,-0.2214,-0.2207,-0.2137,-0.2134,-0.2132,-0.2057,-0.2057,-0.2057,-0.2056,-0.1921,-0.1916,-0.1911,-0.1887,0,0,-0.1895,-0.1893,0,0,0,0,0,0,0,0,-0.2364,-0.2351,-0.2224,-0.2217,-0.221,-0.2113,-0.2151,-0.205,-0.2058,-0.2114,-0.2057,-0.2056,-0.1983,-0.1973,-0.1949,-0.188,-0.1874,-0.1895,-0.1891,-0.1889,-0.1888,0,0,0,0,0,0,0,-0.2371,-0.2356,-0.2217,-0.2222,-0.2214,-0.2195,-0.218,-0.2131,-0.2053,-0.2109,-0.2103,-0.2089,-0.198,-0.1954,-0.1945,-0.1872,-0.1895,-0.189,-0.1887,-0.1885,-0.1777,-0.1777,0,0,0,0,0,0,-0.2387,-0.2362,-0.2221,-0.2213,-0.2287,-0.2192,-0.2175,-0.2145,-0.2053,-0.2039,-0.2089,-0.2086,-0.1963,-0.1951,-0.194,-0.1905,-0.1889,-0.1884,-0.1882,-0.1777,-0.1777,-0.1777,0,0,0,0,0,0,-0.2391,-0.2375,-0.2227,-0.2286,-0.2266,-0.2189,-0.2155,-0.2142,-0.2116,-0.2038,-0.2023,-0.2077,-0.1962,-0.1947,-0.19,-0.1899,-0.1882,-0.1877,-0.1776,-0.1777,-0.1777,-0.1836,0,0,0,0,0,0,-0.2397,-0.2377,-0.2367,-0.2286,-0.2263,-0.219,-0.2155,-0.214,-0.2108,-0.2102,-0.2023,-0.2009,-0.1961,-0.1909,-0.1895,-0.1892,-0.1873,-0.1776,-0.1776,-0.1777,-0.1834,-0.1838,-0.1842,0,0,0,0,0,-0.2404,-0.2389,-0.2367,-0.235,-0.2249,-0.219,-0.2176,-0.2121,-0.2108,-0.2097,-0.2047,-0.2012,-0.1902,-0.1904,-0.1889,-0.1884,-0.1776,-0.1776,-0.1777,-0.1832,-0.1837,-0.1842,0,0,0,0,0,0,-0.2471,-0.2377,-0.2352,-0.231,-0.2259,-0.2177,-0.2162,-0.2129,-0.208,-0.2076,-0.2009,-0.1992,-0.1952,-0.1913,-0.1918,-0.1856,-0.1835,-0.1833,-0.1882,-0.1887,-0.1891,-0.1901,-0.1869,0,0,0,0,0,-0.2481,-0.2441,-0.2361,-0.2332,-0.2308,-0.224,-0.2212,-0.2174,-0.2118,-0.2095,-0.2041,-0.1988,-0.1942,-0.1912,-0.1865,-0.1828,-0.181,-0.1817,-0.1821,-0.1825,-0.1823,-0.1801,-0.1803,-0.1779,-0.1779,-0.1779,0,0,-0.2501,-0.2445,-0.2423,-0.2344,-0.23,-0.226,-0.2222,-0.2181,-0.2151,-0.2089,-0.2041,-0.2001,-0.1937,-0.1895,-0.1874,-0.1861,-0.1826,-0.1826,-0.1829,-0.1825,-0.1802,-0.1804,-0.1806,-0.1779,-0.1779,-0.1779,0,0,-0.2517,-0.247,-0.2441,-0.2397,-0.2331,-0.2286,-0.2279,-0.2203,-0.2173,-0.2125,-0.2078,-0.2041,-0.1962,-0.1918,-0.1886,-0.1887,-0.1852,-0.1873,-0.1895,-0.1874,-0.1875,-0.1877,-0.1877,-0.1877,-0.1872,-0.1872,-0.1872,0,-0.255,-0.2488,-0.243,-0.2392,-0.2358,-0.2301,-0.2271,-0.2232,-0.2153,-0.2131,-0.2119,-0.2019,-0.1972,-0.1919,-0.192,-0.1895,-0.1885,-0.1881,-0.188,-0.1881,-0.1881,-0.188,-0.188,-0.1875,-0.1874,-0.1874,-0.1874,0,-0.2531,-0.2489,-0.2473,-0.2399,-0.2364,-0.233,-0.2267,-0.2239,-0.2204,-0.2161,-0.2112,-0.2054,-0.1994,-0.1979,-0.1945,-0.1922,-0.1916,-0.1893,-0.187,-0.1887,-0.1885,-0.1885,-0.1879,-0.1878,-0.1877,-0.1876,0,0,-0.2584,-0.2479,-0.2474,-0.244,-0.2363,-0.2329,-0.2293,-0.2235,-0.2212,-0.216,-0.2128,-0.2063,-0.2041,-0.2004,-0.1965,-0.1947,-0.1951,-0.1925,-0.1923,-0.1932,-0.1921,-0.1939,-0.1939,-0.1928,-0.1928,-0.1928,-0.1926,0,-0.2588,-0.252,-0.2468,-0.242,-0.238,-0.2326,-0.2294,-0.2244,-0.2203,-0.2163,-0.2117,-0.2072,-0.2047,-0.2024,-0.2004,-0.1955,-0.1948,-0.1954,-0.1897,-0.1896,-0.1914,-0.1938,-0.1956,-0.1958,-0.1925,-0.1925,-0.1925,0,-0.2584,-0.2534,-0.2483,-0.241,-0.2391,-0.2364,-0.2306,-0.2269,-0.2211,-0.2182,-0.2142,-0.2101,-0.2061,-0.2044,-0.1987,-0.1992,-0.1966,-0.1938,-0.1937,-0.1929,-0.1911,-0.193,-0.1957,-0.1957,-0.1923,-0.1923,-0.1924,0,-0.2627,-0.2548,-0.2506,-0.2479,-0.2393,-0.2375,-0.2339,-0.228,-0.2248,-0.2198,-0.2177,-0.2123,-0.2094,-0.2053,-0.1999,-0.1991,-0.1947,-0.1926,-0.1922,-0.1923,-0.1914,-0.1915,-0.1937,-0.1899,-0.1899,-0.1899,-0.1899,0,-0.2637,-0.2607,-0.2524,-0.2499,-0.2464,-0.2404,-0.2372,-0.233,-0.2279,-0.2245,-0.2195,-0.2164,-0.2094,-0.2055,-0.2012,-0.1971,-0.1959,-0.1934,-0.1923,-0.1938,-0.1941,-0.1919,-0.1917,-0.1899,-0.1899,-0.1899,-0.1899,0,-0.2679,-0.2622,-0.2574,-0.2497,-0.2477,-0.2455,-0.2389,-0.2362,-0.2319,-0.2276,-0.2262,-0.2194,-0.2145,-0.2087,-0.2019,-0.199,-0.1953,-0.1937,-0.1973,-0.1966,-0.1966,-0.1966,-0.1973,-0.1971,-0.1936,-0.1936,-0.1937,0,-0.2688,-0.2664,-0.2585,-0.2559,-0.2523,-0.2481,-0.2449,-0.239,-0.2358,-0.229,-0.2272,-0.2219,-0.2174,-0.2098,-0.2042,-0.199,-0.1972,-0.1978,-0.1963,-0.1979,-0.1971,-0.1973,-0.197,-0.1981,-0.1982,-0.1983,-0.1983,0,-0.2711,-0.2685,-0.264,-0.2586,-0.2549,-0.2503,-0.2455,-0.2437,-0.2367,-0.2335,-0.2284,-0.2249,-0.218,-0.2128,-0.2069,-0.2031,-0.1996,-0.1988,-0.1984,-0.1999,-0.2021,-0.2009,-0.1983,-0.1988,-0.1988,-0.1987,-0.1987,-0.1987,-0.2737,-0.2713,-0.2653,-0.2605,-0.2563,-0.252,-0.2491,-0.2444,-0.2401,-0.234,-0.2308,-0.2258,-0.2201,-0.2118,-0.2082,-0.2042,-0.2029,-0.2024,-0.2022,-0.2022,-0.2026,-0.2028,-0.2031,-0.2031,-0.203,-0.203,-0.203,0,-0.2756,-0.2716,-0.2672,-0.2607,-0.257,-0.254,-0.2486,-0.2456,-0.2413,-0.2363,-0.2319,-0.2261,-0.2211,-0.2152,-0.2098,-0.2077,-0.206,-0.2065,-0.2066,-0.2057,-0.2041,-0.2049,-0.208,-0.208,-0.208,-0.208,-0.208,-0.208,-0.2762,-0.272,-0.2687,-0.2623,-0.2583,-0.2533,-0.2505,-0.2465,-0.2424,-0.2362,-0.232,-0.2282,-0.2228,-0.217,-0.2122,-0.2106,-0.2088,-0.2099,-0.2078,-0.2063,-0.2059,-0.2054,-0.2062,-0.2096,-0.2096,-0.2098,-0.2098,-0.2098]},{"header":{"parameterUnit":"m.s-1","parameterCategory":1,"la1":30.2991,"la2":30.254,"lo1":-89.0895,"lo2":-89.0444,"dy":0.0017,"dx":0.0017,"nx":28,"ny":28,"refTime":"2024-05-24T21:00:00:Z","depth":0,"parameterNumber":3,"parameterNumberName":"V-component_of_WINDS"},"data":[0,0,0,0,0,0,0,0,0,0,0,0,0,0,0,0,0,0,0,0,0,0,0,0,0,0,0,0,0,0,0,0,0,0,0,0,0,0,0,0,0,0,0,0,0,0,0,0,0,0,0,0,0,0,0,0,0,0,4.7022,4.7021,0,4.6954,4.6953,4.6952,4.6907,4.6907,4.6907,4.6906,4.6832,4.683,4.6828,0,0,0,0,0,0,0,0,0,0,0,0,0,4.7107,4.7105,4.7022,4.7021,4.702,4.6954,4.6953,4.6952,4.6907,4.6907,4.6907,4.6906,4.6832,4.683,4.6828,0,0,0,0,0,0,0,0,0,0,0,0,0,4.7057,4.7105,4.7022,4.699,4.6986,4.6954,4.6953,4.6952,4.6907,4.6907,4.6907,4.6906,4.6833,4.683,4.6828,4.6821,0,0,4.682,4.6819,0,0,0,0,0,0,0,0,4.706,4.7054,4.6995,4.6992,4.6988,4.6939,4.6956,4.6908,4.6908,4.6937,4.6906,4.6906,4.6867,4.6862,4.685,4.6817,4.6814,4.682,4.6818,4.6817,4.6816,0,0,0,0,0,0,0,4.7064,4.7057,4.6995,4.6994,4.699,4.6977,4.697,4.6946,4.6905,4.6935,4.6931,4.6924,4.6865,4.6853,4.6848,4.6813,4.682,4.6818,4.6816,4.6815,4.6771,4.6771,0,0,0,0,0,0,4.7073,4.706,4.6997,4.6993,4.7024,4.6976,4.6968,4.6955,4.6906,4.6898,4.6925,4.6922,4.6857,4.6851,4.6845,4.6834,4.6817,4.6815,4.6813,4.6771,4.6771,4.6771,0,0,0,0,0,0,4.7075,4.7068,4.7,4.7025,4.7016,4.6975,4.6961,4.6954,4.6941,4.6898,4.689,4.692,4.6857,4.6849,4.6828,4.6831,4.6814,4.6811,4.677,4.6771,4.6771,4.6811,0,0,0,0,0,0,4.7078,4.7069,4.7067,4.7026,4.7015,4.6985,4.6961,4.6953,4.6938,4.6934,4.6891,4.6884,4.6856,4.6832,4.6825,4.6827,4.6809,4.677,4.677,4.6771,4.681,4.6813,4.6816,0,0,0,0,0,4.7081,4.708,4.7067,4.706,4.7012,4.6985,4.6979,4.6948,4.6938,4.6935,4.6907,4.6885,4.6831,4.683,4.6822,4.6823,4.6769,4.677,4.6771,4.6808,4.6813,4.6816,0,0,0,0,0,0,4.712,4.7074,4.7059,4.7045,4.702,4.6978,4.6973,4.6954,4.6929,4.6927,4.6888,4.6878,4.6861,4.684,4.6839,4.6814,4.6798,4.6797,4.6829,4.6832,4.6836,4.6841,4.6807,0,0,0,0,0,4.7127,4.7111,4.7071,4.7062,4.705,4.7014,4.7001,4.698,4.6952,4.694,4.6911,4.6882,4.6859,4.6844,4.682,4.6806,4.6796,4.6803,4.6806,4.6809,4.6809,4.68,4.6803,4.6774,4.6774,4.6774,0,0,4.7141,4.7114,4.7106,4.7069,4.7047,4.703,4.7005,4.6988,4.6975,4.6937,4.6916,4.6893,4.6859,4.6842,4.6832,4.6823,4.6815,4.681,4.6813,4.6811,4.6801,4.6804,4.6807,4.6775,4.6775,4.6775,0,0,4.7159,4.7137,4.7128,4.7107,4.7074,4.705,4.7048,4.7009,4.6993,4.6972,4.6944,4.6926,4.6887,4.6864,4.6847,4.6856,4.6835,4.6849,4.6867,4.6859,4.6861,4.6863,4.6866,4.6868,4.6849,4.6849,4.6849,0,4.7181,4.7156,4.7125,4.711,4.7095,4.7061,4.7051,4.7031,4.6992,4.6981,4.6972,4.6922,4.6897,4.6874,4.6876,4.6863,4.6859,4.6854,4.6864,4.6865,4.6866,4.6869,4.6871,4.6851,4.6851,4.6851,4.6851,0,4.7184,4.7167,4.7163,4.7128,4.7112,4.7099,4.7065,4.7052,4.7032,4.7009,4.6987,4.6956,4.6925,4.6918,4.6897,4.6892,4.6887,4.6871,4.6854,4.6872,4.6874,4.6875,4.6854,4.6853,4.6853,4.6852,0,0,4.7224,4.7174,4.7173,4.7157,4.7119,4.7104,4.7089,4.7062,4.7051,4.7025,4.7011,4.6979,4.6964,4.6945,4.6922,4.6914,4.6924,4.6899,4.6898,4.6905,4.6916,4.6929,4.6931,4.691,4.691,4.691,4.6919,0,4.7236,4.7211,4.7183,4.7166,4.715,4.7118,4.7105,4.708,4.7058,4.7039,4.7013,4.6992,4.6974,4.6962,4.6953,4.6925,4.6926,4.6924,4.6896,4.6895,4.6906,4.6932,4.6945,4.6956,4.692,4.692,4.692,0,4.7247,4.7225,4.7208,4.7172,4.7164,4.7153,4.7126,4.7109,4.7079,4.7063,4.7042,4.7018,4.6999,4.6985,4.6958,4.6958,4.6944,4.6928,4.6928,4.6924,4.6909,4.693,4.6958,4.696,4.6921,4.6921,4.6921,0,4.7279,4.7245,4.723,4.7217,4.7175,4.7168,4.715,4.7119,4.7105,4.708,4.7069,4.7042,4.7027,4.7005,4.6974,4.6966,4.6951,4.6933,4.6936,4.6937,4.6935,4.6935,4.6962,4.6925,4.6925,4.6925,4.6925,0,4.7296,4.7287,4.7244,4.7235,4.7224,4.7191,4.7179,4.7158,4.7131,4.7116,4.7086,4.7072,4.7031,4.7012,4.6987,4.6969,4.6962,4.6948,4.6941,4.6951,4.6953,4.6942,4.694,4.6926,4.6926,4.6926,4.6926,0,4.733,4.7301,4.7283,4.7245,4.7235,4.7229,4.7195,4.7184,4.716,4.7142,4.7136,4.7097,4.7074,4.704,4.7005,4.6988,4.6974,4.6963,4.6985,4.6981,4.6986,4.6986,4.7007,4.7008,4.6971,4.6971,4.6971,0,4.7344,4.7336,4.7298,4.7287,4.727,4.7252,4.7238,4.7204,4.719,4.7156,4.7149,4.7123,4.7101,4.7064,4.7032,4.7005,4.6993,4.7003,4.6989,4.6999,4.6994,4.6995,4.6994,4.7006,4.7007,4.7007,4.7007,0,4.737,4.7357,4.7338,4.7314,4.7298,4.7277,4.7254,4.7246,4.7207,4.7193,4.7169,4.7152,4.7117,4.7092,4.7061,4.704,4.7017,4.7012,4.7011,4.7021,4.7035,4.7028,4.6994,4.7012,4.7011,4.7011,4.7011,4.7011,4.7394,4.7387,4.7359,4.7339,4.7319,4.7298,4.7287,4.7262,4.7243,4.7213,4.7194,4.7172,4.7141,4.7097,4.7078,4.7058,4.7049,4.7048,4.7048,4.7048,4.7052,4.7038,4.7052,4.7052,4.7052,4.7052,4.7052,0,4.742,4.7401,4.7383,4.7353,4.7337,4.7319,4.7293,4.728,4.7262,4.7236,4.7215,4.7188,4.7163,4.713,4.7102,4.7093,4.7082,4.7087,4.7088,4.7083,4.7061,4.7065,4.7097,4.7097,4.7097,4.7097,4.7097,4.7097,4.7432,4.7418,4.7401,4.7376,4.7356,4.7335,4.7322,4.7303,4.7282,4.7254,4.7234,4.7213,4.7184,4.7154,4.7131,4.7121,4.7112,4.7121,4.7108,4.7089,4.7085,4.7081,4.7084,4.7119,4.7119,4.7132,4.7132,4.7132]}]]